"startDT [UTC]","vpos","CH4 [ppm]","stdev(CH4) [ppm]","CO2 [ppm]","stdev(CO2) [ppm]","H2O_reported [%]","stdev(H2O_reported)","CavityPressure [torr]","CavityTemp [C]","OutletValve","CH4_dry [ppm]","CO2_dry [ppm]","DasTemp [C]","EtalonTemp [C]","WarmBoxTemp [C]","MPVPosition","T_ECpre [C]","T_EC1 [C]","T_EC2 [C]","p_inlet [hPa]","p_in [hPa]","p_out [hPa]","T_inlet [C]","RH_inlet [%]","dwpt_inlet [C]","T_vent [C]","RH_vent [%]","dwpt_vent [C]","flow_vent [l min-1]","flow_inlet [l min-1]","dwpt_sample [C]","T_room [C]"
2015-03-24 00:00:00,0.0,1.93218,0.00036,404.486,0.020,0.1937,0.0014,140.000,44.999,34152.87158,1.93589,405.432,32.690,45.067,45.000,0.00,0.09,-272.71,-272.77,-2,978,-3,22.3,5.3,-18.6,22.2,5.4,-18.4,5.73,1.95,-12.8,26.6
2015-03-24 00:01:00,0.0,1.93218,0.00036,404.498,0.035,0.1948,0.0020,140.002,45.000,34150.59756,1.93589,405.449,32.748,45.067,45.000,0.00,0.09,-272.71,-272.76,-3,978,-3,22.2,5.3,-18.5,22.2,5.4,-18.4,5.73,1.94,-12.8,26.5
2015-03-24 00:02:00,0.0,1.93213,0.00035,404.502,0.032,0.1937,0.0019,140.001,45.000,34148.28855,1.93585,405.451,32.793,45.067,44.999,0.00,0.09,-272.71,-272.77,-2,978,-4,22.2,5.3,-18.5,22.2,5.4,-18.3,5.73,1.89,-12.8,26.6
2015-03-24 00:03:00,0.0,1.93214,0.00047,404.512,0.032,0.1943,0.0014,139.998,45.000,34146.23248,1.93583,405.461,32.864,45.068,45.000,0.00,0.09,-272.71,-272.77,-3,976,-4,22.2,5.3,-18.5,22.2,5.4,-18.4,5.73,1.85,-12.8,26.6
2015-03-24 00:04:00,0.0,1.93216,0.00038,404.479,0.038,0.1940,0.0014,140.003,45.001,34147.06587,1.93588,405.428,32.999,45.068,45.001,0.00,0.09,-272.71,-272.76,-3,975,-4,22.2,5.3,-18.5,22.2,5.4,-18.4,5.73,1.91,-12.8,26.6
2015-03-24 00:05:00,0.0,1.93181,0.00029,404.474,0.036,0.1943,0.0017,140.002,45.002,34150.55032,1.93552,405.422,33.154,45.069,45.002,0.00,0.09,-272.72,-272.77,-2,973,-4,22.2,5.3,-18.5,22.2,5.4,-18.3,5.73,2.00,-12.8,26.6
2015-03-24 00:06:00,0.0,1.93206,0.00042,404.472,0.040,0.1940,0.0017,140.001,45.002,34149.41371,1.93573,405.421,33.319,45.069,45.002,0.00,0.09,-272.71,-272.77,-1,972,-4,22.2,5.3,-18.5,22.2,5.4,-18.3,5.73,1.93,-12.8,26.7
2015-03-24 00:07:00,0.0,1.93205,0.00045,404.453,0.026,0.1939,0.0017,139.997,45.003,34149.52341,1.93578,405.399,33.462,45.070,45.002,0.00,0.09,-272.70,-272.77,-2,973,-4,22.2,5.3,-18.5,22.2,5.4,-18.3,5.73,1.84,-12.8,26.7
2015-03-24 00:08:00,0.0,1.93209,0.00032,404.477,0.034,0.1937,0.0020,140.001,45.003,34148.01888,1.93579,405.423,33.628,45.069,45.001,0.00,0.09,-272.71,-272.77,-2,970,-3,22.2,5.4,-18.4,22.2,5.4,-18.3,5.73,1.96,-12.8,26.7
2015-03-24 00:09:00,0.0,1.93222,0.00034,404.480,0.030,0.1952,0.0014,140.003,45.003,34146.22509,1.93594,405.433,33.787,45.069,45.001,0.00,0.09,-272.71,-272.77,-2,970,-3,22.2,5.4,-18.4,22.2,5.4,-18.3,5.73,1.98,-12.8,26.8
2015-03-24 00:10:00,0.0,1.93201,0.00030,404.500,0.040,0.1951,0.0016,139.999,45.003,34144.18486,1.93574,405.454,33.934,45.069,45.001,0.00,0.09,-272.71,-272.77,-1,968,-3,22.2,5.4,-18.4,22.2,5.4,-18.3,5.73,1.83,-12.8,26.8
2015-03-24 00:11:00,0.0,1.93211,0.00036,404.500,0.030,0.1963,0.0016,140.000,45.003,34142.49961,1.93585,405.458,34.088,45.069,45.001,0.00,0.09,-272.70,-272.77,-2,967,-3,22.2,5.4,-18.3,22.2,5.5,-18.2,5.73,1.94,-12.8,26.9
2015-03-24 00:12:00,0.0,1.93215,0.00048,404.476,0.026,0.1961,0.0017,140.001,45.003,34141.94862,1.93590,405.435,34.239,45.068,45.001,0.00,0.09,-272.71,-272.77,-2,967,-3,22.2,5.4,-18.3,22.3,5.5,-18.1,5.73,1.96,-12.8,27.0
2015-03-24 00:13:00,0.0,1.93193,0.00036,404.463,0.040,0.1964,0.0018,140.005,45.003,34139.57513,1.93568,405.423,34.391,45.068,45.001,0.00,0.09,-272.71,-272.77,-1,965,-3,22.3,5.4,-18.2,22.3,5.5,-18.1,5.73,1.82,-12.8,27.0
2015-03-24 00:14:00,0.0,1.93195,0.00031,404.473,0.033,0.1974,0.0029,140.001,45.002,34137.92363,1.93573,405.437,34.538,45.068,45.001,0.00,0.09,-272.70,-272.76,-1,964,-3,22.3,5.4,-18.2,22.3,5.5,-18.1,5.73,1.99,-12.8,27.1
2015-03-24 00:15:00,0.0,1.93183,0.00042,404.493,0.024,0.1973,0.0020,139.997,45.002,34131.38306,1.93558,405.459,34.677,45.068,45.000,0.00,0.09,-272.71,-272.77,-1,963,-3,22.3,5.5,-18.2,22.3,5.5,-18.0,5.73,1.88,-12.8,27.1
2015-03-24 00:16:00,0.0,1.93188,0.00035,404.482,0.022,0.1985,0.0017,139.998,45.002,34126.41674,1.93571,405.451,34.789,45.068,45.000,0.00,0.09,-272.71,-272.77,-0,961,-4,22.3,5.5,-18.1,22.3,5.5,-18.0,5.73,1.88,-12.8,27.2
2015-03-24 00:17:00,0.0,1.93154,0.00034,404.462,0.032,0.1998,0.0015,139.999,45.002,34121.35210,1.93536,405.439,34.903,45.068,45.000,0.00,0.09,-272.70,-272.77,-0,959,-4,22.3,5.5,-18.1,22.3,5.5,-18.0,5.73,1.98,-12.8,27.2
2015-03-24 00:18:00,0.0,1.93132,0.00051,404.462,0.031,0.1987,0.0016,140.001,45.002,34118.06712,1.93512,405.433,35.032,45.068,45.000,0.00,0.09,-272.71,-272.77,-0,958,-4,22.3,5.5,-18.1,22.4,5.5,-17.9,5.73,1.81,-12.8,27.3
2015-03-24 00:19:00,0.0,1.93157,0.00029,404.491,0.036,0.1991,0.0016,139.999,45.002,34104.10717,1.93535,405.463,35.148,45.068,45.001,0.00,0.09,-272.71,-272.77,0,957,-4,22.4,5.5,-18.0,22.4,5.5,-17.9,5.73,2.00,-12.8,27.3
2015-03-24 00:20:00,0.0,1.93161,0.00037,404.481,0.034,0.2002,0.0014,139.996,45.002,34091.68844,1.93546,405.460,35.257,45.068,45.001,0.00,0.09,-272.70,-272.77,1,955,-0,22.4,5.5,-18.0,22.4,5.5,-17.9,5.73,1.81,-12.8,27.4
2015-03-24 00:21:00,0.0,1.93146,0.00045,404.487,0.035,0.2004,0.0021,139.999,45.002,34074.45627,1.93529,405.465,35.382,45.068,45.001,0.00,0.09,-272.71,-272.76,1,950,-4,22.5,5.5,-17.9,22.4,5.5,-17.9,5.73,1.99,-12.7,27.5
2015-03-24 00:22:00,0.0,1.93121,0.00046,404.472,0.024,0.2007,0.0015,140.002,45.002,34044.50938,1.93501,405.453,35.485,45.068,45.000,0.00,0.09,-272.71,-272.77,1,946,-4,22.5,5.5,-17.9,22.5,5.5,-17.9,5.73,1.77,-12.7,27.5
2015-03-24 00:23:00,0.0,1.93118,0.00054,404.467,0.035,0.2020,0.0012,139.985,45.002,33889.78138,1.93508,405.454,35.570,45.068,45.000,0.00,0.09,-272.71,-272.77,3,922,-4,22.5,5.5,-17.9,22.5,5.5,-17.8,5.73,1.93,-12.7,27.6
2015-03-24 00:24:00,0.0,1.93126,0.00037,404.479,0.034,0.2028,0.0015,139.998,45.002,33746.71034,1.93510,405.469,35.647,45.068,45.001,0.00,0.09,-272.71,-272.77,3,901,-4,22.5,5.5,-17.8,22.5,5.6,-17.8,5.73,1.80,-12.7,27.6
2015-03-24 00:25:00,0.0,1.93130,0.00045,404.513,0.030,0.2018,0.0018,139.994,45.002,33709.26631,1.93515,405.500,35.713,45.068,45.001,0.00,0.09,-272.70,-272.77,4,895,-4,22.6,5.5,-17.8,22.6,5.6,-17.7,5.73,1.75,-12.7,27.7
2015-03-24 00:26:00,0.0,1.93126,0.00039,404.505,0.023,0.2025,0.0019,139.999,45.002,33682.21276,1.93514,405.496,35.798,45.068,45.001,0.00,0.09,-272.72,-272.77,3,892,-4,22.6,5.6,-17.7,22.6,5.6,-17.7,5.73,1.91,-12.7,27.8
2015-03-24 00:27:00,0.0,1.93102,0.00037,404.479,0.034,0.2037,0.0014,139.997,45.002,33659.34239,1.93491,405.474,35.887,45.068,45.001,0.00,0.09,-272.71,-272.76,4,889,-4,22.6,5.6,-17.7,22.6,5.6,-17.7,5.73,1.73,-12.7,27.8
2015-03-24 00:28:00,0.0,1.93118,0.00039,404.491,0.027,0.2031,0.0015,139.997,45.002,33632.54616,1.93506,405.483,35.973,45.068,45.001,0.00,0.09,-272.71,-272.77,4,885,-4,22.6,5.5,-17.7,22.6,5.6,-17.7,5.73,1.81,-12.7,27.9
2015-03-24 00:29:00,0.0,1.93107,0.00031,404.512,0.028,0.2040,0.0016,139.998,45.001,33611.50719,1.93497,405.508,36.051,45.068,45.001,0.00,0.09,-272.72,-272.77,3,883,-4,22.7,5.6,-17.7,22.7,5.6,-17.7,5.73,1.88,-12.7,27.9
2015-03-24 00:30:00,0.0,1.93091,0.00034,404.485,0.035,0.2036,0.0016,139.999,45.001,33592.42091,1.93481,405.483,36.106,45.068,45.001,0.00,0.09,-272.70,-272.76,4,880,-4,22.7,5.6,-17.7,22.7,5.6,-17.6,5.73,1.69,-12.7,28.0
2015-03-24 00:31:00,0.0,1.93069,0.00042,404.512,0.033,0.2043,0.0016,140.002,45.001,33576.00838,1.93460,405.509,36.180,45.068,45.001,0.00,0.09,-272.70,-272.76,3,877,-4,22.7,5.6,-17.6,22.7,5.6,-17.6,5.73,1.84,-12.6,28.0
2015-03-24 00:32:00,0.0,1.93074,0.00029,404.503,0.038,0.2044,0.0015,139.997,45.001,33553.08193,1.93461,405.503,36.259,45.068,45.001,0.00,0.09,-272.71,-272.77,4,874,-4,22.7,5.6,-17.6,22.7,5.6,-17.6,5.73,1.84,-12.6,28.1
2015-03-24 00:33:00,0.0,1.93065,0.00033,404.501,0.040,0.2053,0.0018,139.996,45.001,33539.86120,1.93458,405.507,36.313,45.067,45.000,0.00,0.09,-272.70,-272.77,3,873,-4,22.8,5.6,-17.6,22.8,5.6,-17.5,5.73,1.70,-12.6,28.1
2015-03-24 00:34:00,0.0,1.93082,0.00032,404.489,0.028,0.2053,0.0012,139.999,45.001,33531.38189,1.93474,405.490,36.313,45.067,45.000,0.00,0.09,-272.70,-272.77,3,872,-4,22.8,5.6,-17.6,22.8,5.6,-17.6,5.73,1.88,-12.6,28.2
2015-03-24 00:35:00,0.0,1.93070,0.00038,404.492,0.029,0.2063,0.0021,139.998,45.001,33525.73517,1.93466,405.501,36.287,45.066,44.999,0.00,0.09,-272.70,-272.77,4,871,-4,22.7,5.6,-17.6,22.8,5.6,-17.5,5.73,1.72,-12.6,28.2
2015-03-24 00:36:00,0.0,1.93064,0.00041,404.490,0.032,0.2070,0.0017,140.000,45.000,33524.85078,1.93455,405.500,36.234,45.066,44.999,0.00,0.09,-272.71,-272.77,3,871,-4,22.7,5.6,-17.5,22.7,5.6,-17.6,5.73,1.80,-12.6,28.2
2015-03-24 00:37:00,0.0,1.93078,0.00031,404.503,0.030,0.2075,0.0012,139.998,44.999,33520.67038,1.93475,405.518,36.153,45.065,44.998,0.00,0.09,-272.71,-272.76,3,872,-4,22.6,5.6,-17.6,22.7,5.6,-17.5,5.73,1.77,-12.6,28.2
2015-03-24 00:38:00,0.0,1.93095,0.00042,404.500,0.029,0.2068,0.0011,140.004,44.999,33521.64309,1.93490,405.512,36.025,45.065,44.998,0.00,0.09,-272.70,-272.76,4,872,-4,22.6,5.6,-17.6,22.7,5.6,-17.6,5.73,1.77,-12.6,28.1
2015-03-24 00:39:00,0.0,1.93065,0.00037,404.507,0.029,0.2074,0.0020,139.999,44.998,33528.07670,1.93463,405.520,35.884,45.065,44.998,0.00,0.09,-272.71,-272.77,3,874,-4,22.6,5.6,-17.5,22.7,5.6,-17.5,5.73,1.81,-12.6,28.2
2015-03-24 00:40:00,0.0,1.93085,0.00039,404.511,0.033,0.2077,0.0017,140.001,44.998,33540.99900,1.93482,405.525,35.726,45.065,44.998,0.00,0.09,-272.71,-272.76,4,877,-4,22.6,5.6,-17.6,22.7,5.6,-17.5,5.73,1.78,-12.6,28.1
2015-03-24 00:41:00,0.0,1.93070,0.00049,404.512,0.035,0.2090,0.0017,139.998,44.997,33553.26525,1.93470,405.536,35.553,45.065,44.998,0.00,0.09,-272.70,-272.76,3,879,-4,22.6,5.7,-17.5,22.6,5.6,-17.5,5.73,1.75,-12.6,28.0
2015-03-24 00:42:00,0.0,1.93043,0.00040,404.517,0.039,0.2100,0.0020,140.004,44.997,33578.23798,1.93441,405.542,35.378,45.065,44.999,0.00,0.09,-272.71,-272.77,4,883,-4,22.6,5.7,-17.4,22.7,5.7,-17.4,5.73,1.85,-12.6,27.8
2015-03-24 00:43:00,0.0,1.93038,0.00032,404.516,0.040,0.2098,0.0013,140.001,44.997,33601.73309,1.93440,405.543,35.221,45.066,44.999,0.00,0.09,-272.70,-272.76,4,888,-4,22.6,5.7,-17.4,22.6,5.7,-17.4,5.73,1.69,-12.6,27.7
2015-03-24 00:44:00,0.0,1.93027,0.00048,404.513,0.029,0.2105,0.0020,140.001,44.997,33637.28611,1.93431,405.542,35.046,45.066,44.999,0.00,0.09,-272.70,-272.76,3,895,-4,22.6,5.7,-17.4,22.6,5.7,-17.4,5.73,1.89,-12.6,27.6
2015-03-24 00:45:00,0.0,1.93019,0.00024,404.526,0.042,0.2114,0.0021,140.002,44.997,33687.66404,1.93422,405.559,34.863,45.066,44.999,0.00,0.09,-272.71,-272.76,3,903,-4,22.6,5.7,-17.3,22.6,5.7,-17.3,5.73,1.73,-12.6,27.5
2015-03-24 00:46:00,0.0,1.93027,0.00033,404.523,0.032,0.2115,0.0018,140.019,44.997,33912.31110,1.93430,405.557,34.654,45.066,44.999,0.00,0.09,-272.70,-272.77,2,937,-4,22.7,5.7,-17.3,22.6,5.7,-17.4,5.73,1.81,-12.6,27.4
2015-03-24 00:47:00,0.0,1.93016,0.00027,404.521,0.030,0.2138,0.0024,140.003,44.997,34078.12656,1.93425,405.567,34.470,45.066,44.999,0.00,0.09,-272.70,-272.76,-0,963,-4,22.6,5.8,-17.2,22.6,5.8,-17.2,5.73,1.92,-12.6,27.2
2015-03-24 00:48:00,0.0,1.93023,0.00038,404.504,0.031,0.2153,0.0017,139.999,44.997,34113.97683,1.93436,405.556,34.235,45.066,44.999,0.00,0.09,-272.70,-272.76,-1,971,-4,22.7,5.8,-17.1,22.6,5.9,-17.1,5.73,1.90,-12.6,27.2
2015-03-24 00:49:00,0.0,1.93006,0.00042,404.496,0.035,0.2168,0.0018,140.000,44.997,34133.77070,1.93420,405.556,33.989,45.066,44.999,0.00,0.09,-272.71,-272.77,-2,973,-4,22.6,5.9,-17.1,22.6,5.9,-17.0,5.73,1.91,-12.6,27.2
2015-03-24 00:50:00,0.0,1.92999,0.00027,404.483,0.024,0.2183,0.0019,139.999,44.996,34146.62785,1.93415,405.551,33.770,45.066,44.999,0.00,0.09,-272.70,-272.77,-2,974,-4,22.6,5.9,-17.0,22.5,6.0,-16.9,5.73,1.89,-12.7,27.1
2015-03-24 00:51:00,0.0,1.92977,0.00043,404.460,0.025,0.2208,0.0022,139.999,44.997,34156.16230,1.93395,405.540,33.542,45.066,44.999,0.00,0.09,-272.70,-272.76,-3,977,-4,22.6,6.0,-16.9,22.5,6.0,-16.8,5.73,1.90,-12.7,27.1
2015-03-24 00:52:00,0.0,1.92972,0.00046,404.465,0.038,0.2226,0.0014,140.003,44.997,34160.57587,1.93401,405.552,33.360,45.067,45.000,0.00,0.09,-272.71,-272.77,-3,978,-4,22.5,6.0,-16.8,22.5,6.1,-16.8,5.73,1.90,-12.7,27.1
2015-03-24 00:53:00,0.0,1.92960,0.00045,404.471,0.028,0.2227,0.0019,140.004,44.997,34164.51638,1.93386,405.561,33.182,45.067,45.000,0.00,0.09,-272.72,-272.77,-3,978,-4,22.5,6.0,-16.8,22.4,6.1,-16.7,5.73,1.90,-12.7,27.0
2015-03-24 00:54:00,0.0,1.92945,0.00049,404.466,0.039,0.2228,0.0012,140.000,44.997,34165.05868,1.93369,405.555,33.045,45.067,45.000,0.00,0.09,-272.70,-272.76,-3,979,-4,22.5,6.0,-16.8,22.4,6.1,-16.7,5.73,1.91,-12.7,26.9
2015-03-24 00:55:00,0.0,1.92925,0.00028,404.456,0.027,0.2242,0.0015,140.000,44.997,34164.70476,1.93355,405.554,32.909,45.067,45.000,0.00,0.09,-272.70,-272.76,-3,979,-4,22.4,6.1,-16.8,22.3,6.2,-16.7,5.73,1.92,-12.8,26.7
2015-03-24 00:56:00,0.0,1.92935,0.00035,404.473,0.031,0.2257,0.0017,140.000,44.998,34162.10381,1.93368,405.576,32.812,45.067,44.999,0.00,0.09,-272.71,-272.77,-3,979,-4,22.4,6.1,-16.7,22.3,6.2,-16.6,5.73,1.92,-12.8,26.7
2015-03-24 00:57:00,0.0,1.92927,0.00037,404.465,0.034,0.2278,0.0017,140.000,44.998,34157.95659,1.93357,405.581,32.763,45.067,45.000,0.00,0.09,-272.71,-272.77,-3,979,-4,22.3,6.2,-16.6,22.3,6.3,-16.5,5.73,1.92,-12.8,26.7
2015-03-24 00:58:00,0.0,1.92934,0.00038,404.427,0.029,0.2288,0.0018,139.999,44.998,34155.26615,1.93374,405.544,32.752,45.067,44.999,0.00,0.09,-272.70,-272.77,-3,978,-3,22.3,6.3,-16.5,22.3,6.3,-16.4,5.73,1.91,-12.8,26.7
2015-03-24 00:59:00,0.0,1.92935,0.00032,404.429,0.035,0.2292,0.0016,140.001,44.999,34153.40374,1.93372,405.549,32.750,45.067,44.999,0.00,0.09,-272.71,-272.77,-3,979,-4,22.3,6.3,-16.5,22.3,6.4,-16.3,5.73,1.92,-12.9,26.7
2015-03-24 01:00:00,0.0,1.92913,0.00043,404.441,0.034,0.2288,0.0014,140.003,44.999,34151.70739,1.93351,405.560,32.749,45.067,44.999,0.00,0.09,-272.71,-272.77,-3,977,-4,22.2,6.3,-16.5,22.1,6.4,-16.4,5.73,1.94,-12.9,26.6
2015-03-24 01:01:00,0.0,1.92903,0.00038,404.441,0.038,0.2281,0.0018,140.000,45.000,34151.01293,1.93340,405.558,32.752,45.067,44.999,0.00,0.09,-272.70,-272.77,-3,976,-2,22.1,6.3,-16.6,22.1,6.4,-16.4,5.73,1.96,-12.9,26.5
2015-03-24 01:02:00,0.0,1.92905,0.00041,404.428,0.033,0.2263,0.0016,139.998,45.000,34147.05112,1.93336,405.537,32.795,45.068,45.000,0.00,0.09,-272.71,-272.77,-3,977,-3,22.1,6.3,-16.7,22.1,6.3,-16.5,5.73,1.97,-12.9,26.5
2015-03-24 01:03:00,0.0,1.92879,0.00036,404.416,0.030,0.2242,0.0014,140.000,45.000,34147.17055,1.93307,405.511,32.858,45.068,45.001,0.00,0.09,-272.71,-272.77,-3,975,-4,22.1,6.2,-16.8,22.1,6.3,-16.6,5.73,1.93,-12.9,26.6
2015-03-24 01:04:00,0.0,1.92907,0.00036,404.470,0.028,0.2223,0.0018,140.000,45.001,34142.67336,1.93332,405.556,32.979,45.069,45.001,0.00,0.09,-272.71,-272.76,-2,973,-3,22.1,6.2,-16.9,22.1,6.2,-16.7,5.73,1.87,-12.9,26.6
2015-03-24 01:05:00,0.0,1.92936,0.00044,404.481,0.038,0.2202,0.0014,140.004,45.002,34142.54495,1.93352,405.559,33.114,45.069,45.002,0.00,0.09,-272.71,-272.77,-1,972,-3,22.1,6.1,-16.9,22.1,6.2,-16.8,5.73,1.89,-12.9,26.6
2015-03-24 01:06:00,0.0,1.92924,0.00030,404.480,0.033,0.2209,0.0015,140.000,45.002,34140.51454,1.93348,405.560,33.273,45.070,45.002,0.00,0.09,-272.72,-272.77,-2,972,-3,22.1,6.1,-16.9,22.1,6.2,-16.8,5.73,1.99,-12.9,26.7
2015-03-24 01:07:00,0.0,1.92918,0.00027,404.486,0.028,0.2196,0.0026,139.999,45.003,34142.53452,1.93336,405.561,33.447,45.070,45.002,0.00,0.09,-272.71,-272.77,-2,971,-3,22.2,6.1,-17.0,22.2,6.1,-16.8,5.73,1.93,-12.9,26.7
2015-03-24 01:08:00,0.0,1.92902,0.00041,404.479,0.034,0.2178,0.0020,140.003,45.003,34145.22134,1.93319,405.547,33.626,45.070,45.002,0.00,0.09,-272.71,-272.76,-1,971,-3,22.2,6.0,-17.0,22.2,6.1,-16.9,5.73,1.82,-12.9,26.8
2015-03-24 01:09:00,0.0,1.92906,0.00039,404.475,0.033,0.2168,0.0018,139.998,45.003,34143.54562,1.93319,405.535,33.801,45.069,45.001,0.00,0.09,-272.72,-272.77,-1,969,-3,22.2,6.0,-17.0,22.2,6.1,-16.9,5.73,1.97,-12.9,26.8
2015-03-24 01:10:00,0.0,1.92904,0.00039,404.466,0.036,0.2160,0.0019,139.999,45.003,34143.15468,1.93315,405.521,33.958,45.069,45.001,0.00,0.09,-272.71,-272.77,-1,968,-3,22.2,6.0,-17.1,22.3,6.1,-16.9,5.73,1.97,-12.9,26.9
2015-03-24 01:11:00,0.0,1.92923,0.00032,404.467,0.028,0.2163,0.0015,140.000,45.003,34142.45728,1.93337,405.524,34.108,45.069,45.001,0.00,0.09,-272.71,-272.77,-2,967,-3,22.3,6.0,-17.1,22.3,6.0,-17.0,5.73,1.82,-12.9,26.9
2015-03-24 01:12:00,0.0,1.92913,0.00048,404.466,0.039,0.2163,0.0021,139.998,45.003,34138.76657,1.93327,405.524,34.253,45.068,45.000,0.00,0.09,-272.71,-272.77,-1,966,-3,22.3,6.0,-17.1,22.3,6.0,-17.0,5.73,1.96,-12.9,27.0
2015-03-24 01:13:00,0.0,1.92938,0.00043,404.490,0.045,0.2157,0.0016,140.000,45.003,34135.89672,1.93347,405.546,34.412,45.068,45.000,0.00,0.09,-272.71,-272.77,-1,965,-3,22.3,6.0,-17.1,22.3,6.0,-17.0,5.73,1.94,-12.9,27.0
2015-03-24 01:14:00,0.0,1.92913,0.00046,404.469,0.028,0.2154,0.0020,140.001,45.002,34134.89593,1.93325,405.522,34.566,45.068,45.000,0.00,0.09,-272.70,-272.77,-1,964,-3,22.3,6.0,-17.1,22.3,6.0,-17.0,5.73,1.82,-12.9,27.1
2015-03-24 01:15:00,0.0,1.92929,0.00032,404.482,0.029,0.2158,0.0013,140.000,45.002,34128.34267,1.93340,405.537,34.706,45.068,45.000,0.00,0.09,-272.71,-272.77,-0,961,-3,22.3,5.9,-17.2,22.3,6.0,-17.0,5.73,2.00,-12.9,27.1
2015-03-24 01:16:00,0.0,1.92939,0.00043,404.496,0.043,0.2158,0.0016,139.999,45.002,34121.05537,1.93350,405.550,34.841,45.068,45.000,0.00,0.09,-272.71,-272.77,-1,961,-3,22.3,5.9,-17.1,22.3,6.0,-17.0,5.73,1.81,-12.9,27.2
2015-03-24 01:17:00,0.0,1.92927,0.00037,404.487,0.039,0.2163,0.0022,140.004,45.002,34118.70229,1.93343,405.545,34.955,45.068,45.000,0.00,0.09,-272.71,-272.76,0,960,-5,22.4,6.0,-17.1,22.4,6.0,-17.0,5.73,1.95,-12.9,27.2
2015-03-24 01:18:00,0.0,1.92933,0.00049,404.497,0.025,0.2166,0.0015,139.996,45.002,34107.40466,1.93347,405.555,35.075,45.068,45.000,0.00,0.09,-272.71,-272.77,-0,958,-3,22.4,6.0,-17.0,22.4,6.0,-17.0,5.73,1.87,-12.8,27.3
2015-03-24 01:19:00,0.0,1.92917,0.00042,404.485,0.024,0.2167,0.0014,139.996,45.002,34097.85469,1.93328,405.544,35.162,45.068,45.000,0.00,0.09,-272.71,-272.77,-0,956,-3,22.4,6.0,-17.0,22.4,6.0,-16.9,5.73,1.90,-12.8,27.4
2015-03-24 01:20:00,0.0,1.92926,0.00032,404.503,0.032,0.2167,0.0015,139.994,45.002,34084.57801,1.93341,405.562,35.261,45.068,45.001,0.00,0.09,-272.71,-272.77,1,953,-4,22.4,5.9,-17.0,22.4,6.0,-16.9,5.73,1.88,-12.8,27.4
2015-03-24 01:21:00,0.0,1.92939,0.00041,404.511,0.028,0.2160,0.0013,139.994,45.002,34062.87402,1.93353,405.568,35.380,45.068,45.001,0.00,0.09,-272.71,-272.76,1,949,-4,22.5,5.9,-17.1,22.5,6.0,-17.0,5.73,1.87,-12.8,27.5
2015-03-24 01:22:00,0.0,1.92937,0.00030,404.508,0.033,0.2156,0.0014,139.998,45.002,34027.64982,1.93348,405.561,35.475,45.068,45.001,0.00,0.09,-272.71,-272.77,1,943,-4,22.5,5.9,-17.1,22.5,6.0,-17.0,5.73,1.87,-12.8,27.5
2015-03-24 01:23:00,0.0,1.92906,0.00041,404.512,0.035,0.2156,0.0015,139.990,45.002,33854.93419,1.93317,405.568,35.561,45.068,45.001,0.00,0.09,-272.71,-272.77,3,916,-4,22.5,5.9,-17.0,22.5,5.9,-17.0,5.73,1.89,-12.8,27.6
2015-03-24 01:24:00,0.0,1.92898,0.00039,404.534,0.038,0.2150,0.0021,139.995,45.002,33740.10095,1.93310,405.585,35.649,45.068,45.001,0.00,0.09,-272.70,-272.77,3,900,-4,22.6,5.9,-17.1,22.5,5.9,-17.0,5.73,1.72,-12.8,27.7
2015-03-24 01:25:00,0.0,1.92904,0.00042,404.510,0.023,0.2153,0.0019,140.000,45.002,33702.15547,1.93314,405.561,35.733,45.068,45.001,0.00,0.09,-272.70,-272.76,3,895,-4,22.6,5.9,-17.0,22.6,5.9,-17.0,5.73,1.90,-12.7,27.7
2015-03-24 01:26:00,0.0,1.92905,0.00032,404.542,0.023,0.2142,0.0012,139.996,45.002,33669.89277,1.93314,405.589,35.830,45.068,45.001,0.00,0.09,-272.71,-272.77,4,890,-4,22.6,5.9,-17.1,22.6,5.9,-17.0,5.73,1.78,-12.7,27.8
2015-03-24 01:27:00,0.0,1.92894,0.00036,404.487,0.041,0.2158,0.0020,139.996,45.002,33645.51122,1.93308,405.544,35.913,45.068,45.001,0.00,0.09,-272.70,-272.77,3,887,-4,22.6,5.9,-17.0,22.6,5.9,-17.0,5.73,1.75,-12.7,27.8
2015-03-24 01:28:00,0.0,1.92897,0.00032,404.499,0.027,0.2152,0.0016,139.997,45.002,33620.88287,1.93304,405.552,35.986,45.068,45.001,0.00,0.09,-272.70,-272.77,4,883,-4,22.6,5.8,-17.1,22.7,5.9,-17.0,5.73,1.90,-12.7,27.9
2015-03-24 01:29:00,0.0,1.92893,0.00046,404.502,0.032,0.2146,0.0017,139.997,45.002,33596.59765,1.93303,405.551,36.046,45.068,45.001,0.00,0.09,-272.71,-272.77,3,880,-4,22.7,5.8,-17.1,22.7,5.9,-17.0,5.73,1.72,-12.7,27.9
2015-03-24 01:30:00,0.0,1.92881,0.00039,404.533,0.028,0.2154,0.0016,139.995,45.002,33576.99102,1.93295,405.586,36.133,45.068,45.001,0.00,0.09,-272.71,-272.77,4,878,-4,22.7,5.8,-17.1,22.7,5.9,-17.0,5.73,1.79,-12.7,28.0
2015-03-24 01:31:00,0.0,1.92862,0.00031,404.492,0.032,0.2143,0.0016,139.997,45.001,33557.35849,1.93270,405.542,36.210,45.068,45.001,0.00,0.09,-272.71,-272.76,4,874,-4,22.7,5.8,-17.1,22.7,5.9,-17.0,5.73,1.88,-12.7,28.1
2015-03-24 01:32:00,0.0,1.92872,0.00033,404.515,0.031,0.2151,0.0017,139.997,45.001,33536.98753,1.93281,405.567,36.293,45.068,45.001,0.00,0.09,-272.70,-272.76,3,872,-4,22.8,5.8,-17.0,22.8,5.9,-17.0,5.73,1.70,-12.7,28.1
2015-03-24 01:33:00,0.0,1.92875,0.00040,404.502,0.027,0.2158,0.0016,139.999,45.001,33516.12003,1.93287,405.557,36.373,45.068,45.001,0.00,0.09,-272.71,-272.77,4,869,-4,22.8,5.8,-17.0,22.8,5.9,-16.9,5.73,1.83,-12.6,28.1
2015-03-24 01:34:00,0.0,1.92883,0.00041,404.493,0.028,0.2161,0.0017,139.998,45.001,33501.66556,1.93295,405.550,36.414,45.067,45.000,0.00,0.09,-272.71,-272.76,3,867,-4,22.8,5.8,-17.0,22.8,5.9,-17.0,5.73,1.84,-12.6,28.2
2015-03-24 01:35:00,0.0,1.92892,0.00039,404.511,0.028,0.2176,0.0014,140.001,45.001,33491.61000,1.93308,405.575,36.416,45.066,44.999,0.00,0.09,-272.70,-272.76,4,866,-4,22.8,5.9,-16.9,22.8,5.9,-16.9,5.73,1.69,-12.6,28.2
2015-03-24 01:36:00,0.0,1.92887,0.00026,404.501,0.028,0.2175,0.0012,140.003,45.000,33486.42089,1.93301,405.563,36.378,45.066,44.999,0.00,0.09,-272.71,-272.77,3,865,-4,22.7,5.9,-16.9,22.8,5.9,-16.9,5.73,1.88,-12.6,28.2
2015-03-24 01:37:00,0.0,1.92893,0.00036,404.500,0.026,0.2180,0.0021,139.996,44.999,33475.03440,1.93309,405.566,36.337,45.065,44.998,0.00,0.09,-272.71,-272.77,4,864,-4,22.7,5.9,-16.9,22.8,5.9,-16.9,5.73,1.67,-12.6,28.2
2015-03-24 01:38:00,0.0,1.92904,0.00038,404.491,0.030,0.2181,0.0023,139.997,44.999,33474.64014,1.93322,405.558,36.232,45.064,44.997,0.00,0.09,-272.71,-272.76,3,865,-4,22.7,5.9,-17.0,22.7,5.9,-16.9,5.73,1.88,-12.6,28.2
2015-03-24 01:39:00,0.0,1.92881,0.00037,404.501,0.033,0.2168,0.0016,140.002,44.998,33481.89885,1.93295,405.562,36.138,45.064,44.997,0.00,0.09,-272.70,-272.76,4,866,-4,22.7,5.9,-17.0,22.7,5.9,-16.8,5.73,1.68,-12.6,28.2
2015-03-24 01:40:00,0.0,1.92881,0.00039,404.486,0.025,0.2173,0.0017,139.998,44.998,33488.30597,1.93295,405.549,35.971,45.064,44.997,0.00,0.09,-272.71,-272.77,3,869,-4,22.6,5.9,-17.0,22.7,5.9,-16.9,5.73,1.88,-12.6,28.1
2015-03-24 01:41:00,0.0,1.92877,0.00036,404.478,0.037,0.2169,0.0012,139.997,44.997,33504.95614,1.93291,405.538,35.797,45.064,44.998,0.00,0.09,-272.70,-272.76,4,872,-4,22.6,5.9,-17.0,22.7,5.9,-17.0,5.73,1.66,-12.6,28.1
2015-03-24 01:42:00,0.0,1.92890,0.00047,404.479,0.032,0.2162,0.0017,140.003,44.997,33524.25823,1.93304,405.537,35.616,45.065,44.998,0.00,0.09,-272.70,-272.76,4,875,-4,22.6,5.9,-17.1,22.7,5.9,-16.9,5.73,1.88,-12.6,28.0
2015-03-24 01:43:00,0.0,1.92886,0.00043,404.504,0.029,0.2165,0.0020,140.003,44.997,33543.49791,1.93299,405.563,35.413,45.065,44.999,0.00,0.09,-272.71,-272.77,3,879,-4,22.6,5.9,-17.0,22.7,5.9,-17.0,5.73,1.68,-12.7,27.9
2015-03-24 01:44:00,0.0,1.92875,0.00034,404.482,0.034,0.2164,0.0013,140.001,44.997,33575.52156,1.93287,405.539,35.214,45.066,44.999,0.00,0.09,-272.71,-272.77,4,885,-4,22.6,5.9,-17.0,22.6,5.9,-17.0,5.73,1.84,-12.6,27.7
2015-03-24 01:45:00,0.0,1.92875,0.00026,404.481,0.033,0.2172,0.0013,139.997,44.997,33607.25779,1.93289,405.543,35.022,45.066,45.000,0.00,0.09,-272.70,-272.76,3,891,-4,22.6,5.9,-17.0,22.6,5.9,-16.9,5.73,1.80,-12.6,27.6
2015-03-24 01:46:00,0.0,1.92877,0.00038,404.494,0.026,0.2158,0.0018,140.004,44.997,33663.29904,1.93291,405.550,34.807,45.067,45.000,0.00,0.09,-272.71,-272.77,2,900,-4,22.6,5.9,-17.1,22.6,5.9,-17.0,5.73,1.72,-12.6,27.5